Regional Weather Roundup
Issued by NWS

Home | Current Version | Previous Version | Graphics & Text | Print | Product List | Glossary On
Versions: 1 2 3 4 5 6 7 8 9 10 11 12 13 14 15 16 17 18 19 20 21 22 23 24 25 26 27
000
ASUS45 KSLC 052010
RWRUT

UTAH REGIONAL WEATHER ROUNDUP
NATIONAL WEATHER SERVICE SALT LAKE CITY UT
100 PM MST MON DEC 05 2016

UTZ001>011-023>025-052100-

NORTHERN UTAH

CITY           SKY/WX    TMP DP  RH WIND       PRES   REMARKS
BRIGHAM CITY     N/A     31   6  35 NW3       30.05F
HILL AFB       SUNNY     28   8  43 NW8       30.02F WCI  20
LOGAN          SUNNY    N/A N/A N/A VRB3      30.03F
OGDEN          SUNNY     30   9  41 NW7       30.03F WCI  23
SALT LAKE CITY MOSUNNY   33   9  36 NW9       30.05F WCI  25
TOOELE VALLEY  CLOUDY    32  10  40 CALM      30.06F
WENDOVER       CLOUDY    34   3  27 S8        30.06F WCI  27
HEBER CITY     CLOUDY    28  -6  22 N12       29.94S WCI  18
WEST JORDAN    CLOUDY    28  15  56 NW15G23   30.04F WCI  17

$$

UTZ011>015-024>027-052100-

CENTRAL/NORTHEAST UTAH

CITY           SKY/WX    TMP DP  RH WIND       PRES   REMARKS
PROVO AIRPORT  CLOUDY    31   9  39 NW13      30.04F WCI  21
MOAB/CANYONLAN SUNNY     45  18  34 W12       29.86F
DELTA          CLOUDY    32  -2  23 NW7       30.04S WCI  26
PRICE          MOSUNNY   34  10  37 W13G21    29.89S WCI  25
RICHFIELD      SUNNY     37  18  44 N9        29.99  WCI  31
ROOSEVELT      SUNNY     36  -6  17 W24G32    29.91R WCI  24
VERNAL         MOSUNNY   39  -4  16 W23G32    29.85R WCI  28

$$

UTZ013>016-019>022-027-052100-

SOUTHERN UTAH

CITY           SKY/WX    TMP DP  RH WIND       PRES   REMARKS
BRYCE CANYON   SUNNY     39  10  30 NW18G29   29.92R WCI  30
CEDAR CITY     SUNNY     44  19  36 N7        29.95F
MILFORD        SUNNY     39  13  34 N16       29.99F WCI  30
ST GEORGE      CLOUDY    48  18  29 CALM      29.95F
HANKSVILLE     SUNNY     45  18  33 SE5       29.89F
KANAB          SUNNY     55  16  21 S10       29.94F
BLANDING       SUNNY     43  17  35 CALM      29.93F

$$

REGIONAL REPORTS     COLORADO/ARIZONA

CITY           SKY/WX    TMP DP  RH WIND       PRES   REMARKS
CRAIG, CO      CLOUDY    24   0  35 N13G24    29.87R WCI  12
GRAND JUNCTION CLOUDY    44  18  35 NW13      29.82F
RIFLE, CO      CLOUDY    46  17  31 W22G28    29.76F
MONTROSE, CO   SUNNY     43  16  33 NW8       29.83F
CORTEZ, CO     SUNNY     47  16  29 NW12G21   29.86F
COLORADO CITY    N/A     54  14  20 W8        29.95F
PAGE, AZ       SUNNY     47  17  30 NE5       29.86F
GRAND CANYON   SUNNY     47  19  33 VRB6G17   29.95F
KINGMAN, AZ    MOSUNNY   59   2  10 SW12      29.94F
FLAGSTAFF, AZ  SUNNY     46  14  27 SW14      29.95F

$$

REGIONAL REPORTS    NEVADA/IDAHO/WYOMING

CITY           SKY/WX    TMP DP  RH WIND       PRES   REMARKS
LAS VEGAS, NV  PTSUNNY   55  14  19 E6        29.92F
ELY, NY        SUNNY     38  17  42 W10       29.95F WCI  31
ELKO, NV       SUNNY     32   6  33 SW7       30.01F WCI  26
POCATELLO, ID  PTSUNNY   24  16  71 SW17      30.06S WCI  11
BURLEY, ID     SUNNY     26  16  65 W17       30.06F WCI  13
FORT BRIDGER,    N/A     22  -2  35 W13G18    29.93S WCI  10
EVANSTON, WY   SUNNY     20 -11  25 W14       29.90F WCI   7
ROCK SPRINGS,  MOSUNNY   19   2  47 W21       29.87S WCI   3

$$




USA.gov is the U.S. government's official web portal to all federal, state and local government web resources and services.